Weather History for Corning, AR

Change the Weather History Date:

Sunday, May 13, 2012

  Actual Average (KARG) Record (KARG)
Temperature  
Mean Temperature 68 °F -  
Max Temperature 80 °F 76 °F 87 °F (1998)
Min Temperature 57 °F 57 °F 46 °F (1997)
Cooling Degree Days 4    
Growing Degree Days 18 (Base 50)    
Moisture  
Dew Point 53 °F    
Average Humidity 60    
Maximum Humidity 94    
Minimum Humidity 32    
Precipitation  
Precipitation 0.00 in - - ()
Sea Level Pressure  
Sea Level Pressure 30.08 in    
Wind  
Wind Speed 9 mph (North)    
Max Wind Speed 22 mph    
Max Gust Speed 30 mph    
Visibility 10 miles    
Events      
Averages and records for this station are not official NWS values.
T = Trace of Precipitation, MM = Missing Value Source: NWS Daily Summary

Daily Weather History Graph

Daily Weather History Graph

Search for Another Location

Airport:

Trip Planner

Search our weather history database for the weather conditions in past years. The results will help you decide how hot, cold, wet, or windy it might be!

Date:

Astronomy

May. 13, 2012 Rise Set
Actual Time 5:57 AM CDT 8:01 PM CDT
Civil Twilight 5:28 AM CDT 8:29 PM CDT
Nautical Twilight 4:53 AM CDT 9:04 PM CDT
Astronomical Twilight 4:16 AM CDT 9:42 PM CDT
Moon 1:50 AM CDT (5/13) 1:33 PM CDT (5/13)
Length of Visible Light 15h 01m
Length of Day
14h 04m
Last Quarter, 42% of the Moon is Illuminated
May 13
Last Quarter
May 20
New
May 28
First Quarter
Jun 4
Full
Jun 11
Last Quarter

Hourly Weather History & Observations

Time (CDT) Temp. Dew Point Humidity Pressure Visibility Wind Dir Wind Speed Gust Speed Precip Events Conditions
12:35 AM 62.6 °F 57.2 °F 82% 30.11 in 10.0 mi NNE 5.8 mph - N/A   Mostly Cloudy
1:15 AM 62.6 °F 57.2 °F 82% 30.10 in 10.0 mi NNE 5.8 mph - N/A   Mostly Cloudy
1:35 AM 62.6 °F 57.2 °F 82% 30.10 in 10.0 mi NNE 8.1 mph - N/A   Partly Cloudy
1:55 AM 60.8 °F 57.2 °F 88% 30.10 in 10.0 mi NNE 8.1 mph - N/A   Clear
2:15 AM 60.8 °F 57.2 °F 88% 30.09 in 10.0 mi NNE 6.9 mph - N/A   Clear
2:35 AM 60.8 °F 57.2 °F 88% 30.09 in 10.0 mi North 6.9 mph - N/A   Clear
2:55 AM 59.0 °F 55.4 °F 88% 30.09 in 10.0 mi North 6.9 mph - N/A   Clear
3:15 AM 59.0 °F 55.4 °F 88% 30.09 in 10.0 mi North 5.8 mph - N/A   Clear
3:35 AM 59.0 °F 55.4 °F 88% 30.09 in 10.0 mi NNE 5.8 mph - N/A   Clear
3:55 AM 59.0 °F 55.4 °F 88% 30.09 in 9.0 mi NNE 4.6 mph - N/A   Clear
4:15 AM 57.2 °F 55.4 °F 94% 30.10 in 9.0 mi North 3.5 mph - N/A   Partly Cloudy
4:35 AM 57.2 °F 55.4 °F 94% 30.09 in 8.0 mi North 4.6 mph - N/A   Mostly Cloudy
4:55 AM 57.2 °F 55.4 °F 94% 30.09 in 10.0 mi NNW 5.8 mph - N/A   Mostly Cloudy
5:15 AM 57.2 °F 55.4 °F 94% 30.10 in 10.0 mi NNW 4.6 mph - N/A   Scattered Clouds
5:35 AM 57.2 °F 55.4 °F 94% 30.10 in 10.0 mi NNW 4.6 mph - N/A   Clear
6:15 AM 57.2 °F 55.4 °F 94% 30.11 in 7.0 mi NNW 4.6 mph - N/A   Overcast
6:35 AM 57.2 °F 55.4 °F 94% 30.11 in 7.0 mi North 4.6 mph - N/A   Overcast
6:55 AM 59.0 °F 55.4 °F 88% 30.12 in 7.0 mi North 5.8 mph - N/A   Mostly Cloudy
7:15 AM 59.0 °F 57.2 °F 94% 30.12 in 8.0 mi North 9.2 mph - N/A   Scattered Clouds
7:35 AM 60.8 °F 57.2 °F 88% 30.12 in 9.0 mi North 8.1 mph - N/A   Scattered Clouds
7:55 AM 60.8 °F 55.4 °F 82% 30.12 in 10.0 mi North 9.2 mph - N/A   Partly Cloudy
8:35 AM 64.4 °F 55.4 °F 73% 30.12 in 10.0 mi NNE 10.4 mph 16.1 mph N/A   Clear
8:55 AM 66.2 °F 55.4 °F 68% 30.12 in 10.0 mi NNE 13.8 mph 20.7 mph N/A   Clear
9:15 AM 68.0 °F 55.4 °F 64% 30.12 in 10.0 mi NNE 11.5 mph 18.4 mph N/A   Clear
9:35 AM 68.0 °F 55.4 °F 64% 30.12 in 10.0 mi NNE 16.1 mph 20.7 mph N/A   Clear
10:15 AM 71.6 °F 55.4 °F 57% 30.11 in 10.0 mi NE 16.1 mph 21.9 mph N/A   Clear
10:35 AM 73.4 °F 53.6 °F 50% 30.11 in 10.0 mi NE 17.3 mph 21.9 mph N/A   Clear
10:55 AM 73.4 °F 53.6 °F 50% 30.10 in 10.0 mi NNE 16.1 mph 20.7 mph N/A   Clear
11:15 AM 73.4 °F 51.8 °F 47% 30.10 in 10.0 mi NNE 19.6 mph 26.5 mph N/A   Clear
11:35 AM 75.2 °F 51.8 °F 44% 30.10 in 10.0 mi NNE 16.1 mph 25.3 mph N/A   Clear
11:55 AM 75.2 °F 51.8 °F 44% 30.10 in 10.0 mi NNE 21.9 mph 29.9 mph N/A   Clear
12:15 PM 75.2 °F 50.0 °F 41% 30.09 in 10.0 mi NNE 17.3 mph 24.2 mph N/A   Clear
12:35 PM 77.0 °F 51.8 °F 41% 30.09 in 10.0 mi NNE 13.8 mph 21.9 mph N/A   Clear
12:55 PM 77.0 °F 50.0 °F 39% 30.08 in 10.0 mi NNE 15.0 mph 23.0 mph N/A   Clear
1:15 PM 77.0 °F 50.0 °F 39% 30.08 in 10.0 mi NE 16.1 mph 21.9 mph N/A   Clear
1:55 PM 77.0 °F 50.0 °F 39% 30.08 in 10.0 mi NNE 11.5 mph 17.3 mph N/A   Partly Cloudy
2:15 PM 78.8 °F 48.2 °F 34% 30.07 in 10.0 mi NE 12.7 mph 25.3 mph N/A   Partly Cloudy
2:35 PM 78.8 °F 50.0 °F 36% 30.07 in 10.0 mi North 13.8 mph 24.2 mph N/A   Partly Cloudy
2:55 PM 78.8 °F 48.2 °F 34% 30.06 in 10.0 mi North 12.7 mph 20.7 mph N/A   Partly Cloudy
3:15 PM 80.6 °F 48.2 °F 32% 30.05 in 10.0 mi NNE 11.5 mph 19.6 mph N/A   Partly Cloudy
3:35 PM 80.6 °F 48.2 °F 32% 30.04 in 10.0 mi North 12.7 mph 19.6 mph N/A   Partly Cloudy
3:55 PM 80.6 °F 50.0 °F 34% 30.04 in 10.0 mi North 11.5 mph 17.3 mph N/A   Partly Cloudy
4:15 PM 78.8 °F 50.0 °F 36% 30.03 in 10.0 mi NNE 15.0 mph - N/A   Clear
4:35 PM 80.6 °F 50.0 °F 34% 30.03 in 10.0 mi North 10.4 mph 19.6 mph N/A   Partly Cloudy
4:55 PM 80.6 °F 48.2 °F 32% 30.03 in 10.0 mi North 11.5 mph 18.4 mph N/A   Clear
5:15 PM 80.6 °F 50.0 °F 34% 30.03 in 10.0 mi North 11.5 mph 17.3 mph N/A   Partly Cloudy
5:35 PM 80.6 °F 50.0 °F 34% 30.03 in 10.0 mi North 16.1 mph - N/A   Clear
5:55 PM 80.6 °F 50.0 °F 34% 30.03 in 10.0 mi North 10.4 mph - N/A   Clear
6:15 PM 78.8 °F 48.2 °F 34% 30.03 in 10.0 mi North 11.5 mph 17.3 mph N/A   Clear
6:35 PM 78.8 °F 48.2 °F 34% 30.02 in 10.0 mi North 11.5 mph 16.1 mph N/A   Clear
6:55 PM 77.0 °F 48.2 °F 36% 30.03 in 10.0 mi North 12.7 mph - N/A   Clear
7:15 PM 77.0 °F 50.0 °F 39% 30.03 in 10.0 mi North 10.4 mph - N/A   Clear
7:35 PM 75.2 °F 50.0 °F 41% 30.04 in 10.0 mi North 6.9 mph - N/A   Clear
8:15 PM 73.4 °F 50.0 °F 44% 30.05 in 10.0 mi North 5.8 mph - N/A   Clear
8:35 PM 73.4 °F 51.8 °F 47% 30.05 in 10.0 mi North 8.1 mph - N/A   Clear
8:55 PM 71.6 °F 53.6 °F 53% 30.05 in 10.0 mi North 5.8 mph - N/A   Clear
9:15 PM 69.8 °F 53.6 °F 56% 30.06 in 10.0 mi North 6.9 mph - N/A   Clear
9:35 PM 69.8 °F 53.6 °F 56% 30.06 in 10.0 mi North 6.9 mph - N/A   Clear
9:55 PM 68.0 °F 53.6 °F 60% 30.07 in 10.0 mi North 6.9 mph - N/A   Clear
10:15 PM 68.0 °F 53.6 °F 60% 30.07 in 10.0 mi North 5.8 mph - N/A   Clear
10:55 PM 66.2 °F 53.6 °F 64% 30.06 in 10.0 mi NNW 6.9 mph - N/A   Clear
11:15 PM 66.2 °F 53.6 °F 64% 30.06 in 10.0 mi North 8.1 mph - N/A   Clear
11:35 PM 64.4 °F 53.6 °F 68% 30.06 in 10.0 mi North 6.9 mph - N/A   Clear
11:55 PM 64.4 °F 53.6 °F 68% 30.06 in 10.0 mi NNW 6.9 mph - N/A   Clear